Location: CNYAC Observatory
(43.2150°N, 74.9500°W)
Time: 13:14:21
(UTC-04:00)

Meteor 1-22 Rocket - Visible Passes

Search period start: 21 September 2018 00:00
Search period end: 01 October 2018 00:00
Orbit: 788 x 940 km, 81.2° (Epoch: 20 September)

Date Brightness Start Highest point End Pass type
(mag) Time Alt. Az. Time Alt. Az. Time Alt. Az.
21 Sep 4.9 20:04:34 10° SSE 20:10:00 36° E 20:15:20 10° NNE visible
21 Sep 5.8 21:47:46 10° SW 21:53:12 34° WNW 21:58:32 10° N visible
22 Sep 4.9 19:56:37 10° SSE 20:02:01 36° E 20:07:20 10° NNE visible
22 Sep 5.8 21:39:47 10° SW 21:45:13 34° WNW 21:50:33 10° N visible
23 Sep 4.9 19:48:38 10° SSE 19:54:02 36° E 19:59:21 10° NNE visible
23 Sep 5.9 21:31:49 10° SW 21:37:14 35° WNW 21:42:33 10° N visible
24 Sep 4.9 19:40:41 10° SSE 19:46:04 36° E 19:51:19 10° NNE visible
24 Sep 5.9 21:23:50 10° SW 21:29:15 35° WNW 21:34:33 10° N visible
25 Sep 6.5 06:20:46 10° NNE 06:25:23 27° ENE 06:29:53 10° SE visible
25 Sep 4.9 19:32:43 10° SSE 19:38:05 35° E 19:43:19 10° NNE visible
25 Sep 5.9 21:15:52 10° SW 21:21:16 35° WNW 21:26:33 10° N visible
26 Sep 6.5 06:12:47 10° NNE 06:17:23 27° ENE 06:21:52 10° SE visible
26 Sep 4.9 19:24:45 10° SSE 19:30:06 35° E 19:35:19 10° NNE visible
26 Sep 5.9 21:07:53 10° SW 21:13:16 35° WNW 21:18:33 10° N visible
27 Sep 6.5 06:04:48 10° NNE 06:09:22 27° ENE 06:13:50 10° SE visible
27 Sep 4.9 19:16:47 10° SSE 19:22:07 35° E 19:27:19 10° NNE visible
27 Sep 5.9 20:59:55 10° SW 21:05:17 35° WNW 21:10:33 10° N visible
28 Sep 6.5 05:56:49 10° NNE 06:01:22 27° ENE 06:05:49 10° SE visible
28 Sep 4.9 19:08:50 10° SSE 19:14:08 35° E 19:19:18 10° NNE visible
28 Sep 5.9 20:51:57 10° SW 20:57:18 35° WNW 21:02:33 10° N visible
29 Sep 6.4 05:48:49 10° NNE 05:53:21 27° ENE 05:57:48 10° SE visible
29 Sep 5.9 20:43:58 10° SW 20:49:19 35° WNW 20:54:32 10° N visible
30 Sep 6.4 05:40:50 10° NNE 05:45:21 27° ENE 05:49:47 10° SE visible
30 Sep 5.9 20:35:59 10° SW 20:41:20 35° WNW 20:46:31 10° N visible
